Location: ?
(35.4554°N, 139.3092°E)
Time: 22:01:05
(UTC+00:00)

NOSS 3-4 (C) - Pass Details

Date: 21 April 2021
Orbit: 873 x 1339 km, 63.4° (Epoch: 06 May)

Event Time Altitude Azimuth Distance (km) Brightness Sun altitude
Rises 17:57:28 0° 327° (NNW) 3,905 6.7 -23.6°
Reaches altitude 10° 18:00:01 10° 327° (NNW) 3,009 6.1 -23.2°
Maximum altitude 18:07:18 82° 241° (WSW) 1,233 3.8 -22.0°
Drops below altitude 10° 18:15:20 10° 154° (SSE) 3,300 6.2 -20.6°
Sets 18:18:15 0° 154° (SSE) 4,302 6.8 -20.1°
